This is the latest recevied weather packets stored in our database for station/object AA7VG. If no packets are shown the sender has not sent any weather packets the latest 10 day(s).
| Time | Temp. | Humidity | Pressure | Rain* | Wind** | Luminosity | Snow |
|---|---|---|---|---|---|---|---|
| 1777400420 | 10.56° C | 38% | 1017.1 hPa | 0 mm | - | - | - |
| 1777400120 | 10° C | 40% | 1017.2 hPa | 0 mm | - | - | - |
| 1777399818 | 8.89° C | 41% | 1017.2 hPa | 0 mm | - | - | - |
| 1777399514 | 8.89° C | 39% | 1017.1 hPa | 0 mm | - | - | - |
| 1777399212 | 9.44° C | 40% | 1017.1 hPa | 0 mm | - | - | - |
| 1777398909 | 8.89° C | 42% | 1017 hPa | 0 mm | - | - | - |
| 1777398606 | 8.33° C | 42% | 1017.4 hPa | 0 mm | - | - | - |
| 1777398302 | 8.33° C | 42% | 1017.4 hPa | 0 mm | - | - | - |
| 1777398000 | 8.89° C | 41% | 1017.2 hPa | 0 mm | - | - | - |
| 1777397696 | 8.89° C | 42% | 1017 hPa | 0 mm | - | - | - |
| 1777397391 | 9.44° C | 39% | 1017 hPa | 0 mm | - | - | - |
| 1777397088 | 9.44° C | 41% | 1017 hPa | 0 mm | - | - | - |
| 1777396785 | 9.44° C | 42% | 1017 hPa | 0 mm | - | - | - |
| 1777396482 | 9.44° C | 42% | 1017.2 hPa | 0 mm | - | - | - |
| 1777396179 | 8.89° C | 42% | 1017.1 hPa | 0 mm | - | - | - |
| 1777395874 | 8.89° C | 43% | 1016.9 hPa | 0 mm | - | - | - |
| 1777395570 | 8.89° C | 42% | 1017 hPa | 0 mm | - | - | - |
| 1777395266 | 8.89° C | 42% | 1017.2 hPa | 0 mm | - | - | - |
| 1777394965 | 9.44° C | 44% | 1016.9 hPa | 0 mm | - | - | - |
| 1777394661 | 8.89° C | 43% | 1017.2 hPa | 0 mm | - | - | - |
| 1777394357 | 8.89° C | 43% | 1017 hPa | 0 mm | - | - | - |
| 1777394053 | 8.89° C | 43% | 1016.9 hPa | 0 mm | - | - | - |
| 1777393748 | 8.33° C | 44% | 1016.9 hPa | 0 mm | - | - | - |
| 1777393443 | 8.33° C | 45% | 1016.9 hPa | 0 mm | - | - | - |
| 1777393139 | 8.33° C | 43% | 1017 hPa | 0 mm | - | - | - |
* Rain latest hour (hover to see other rain measurements)
** Current wind speed in m/s (hover to see current wind gust speed)